AirNav   ATP
 
 542 users online  

52I Gross Airport
Pinconning, Michigan, USA

GOING TO PINCONNING?


FAA INFORMATION EFFECTIVE 11 OCTOBER 2018

Location

FAA Identifier: 52I
Lat/Long: 43-50-48.8000N / 084-00-41.0000W
43-50.813333N / 084-00.683333W
43.8468889 / -84.0113889
(estimated)
Elevation: 615 ft. / 187 m (estimated)
Variation: 06W (1985)
From city: 3 miles W of PINCONNING, MI
Time zone: UTC -4 (UTC -5 during Standard Time)
Zip code: 48650

Airport Operations

Airport use: Open to the public
Activation date: 11/1999
Control tower: no
ARTCC: CLEVELAND CENTER
FSS: LANSING FLIGHT SERVICE STATION
NOTAMs facility: LAN (NOTAM-D service available)
Attendance: IREG
FOR ARPT ATTENDANCE CALL 989-239-9878.
Wind indicator: yes
Segmented circle: no
Lights: ACTVT LIRL RY 09/27 - CTAF.

Airport Communications

CTAF: 122.9
WX AWOS-3 at IKW (15 nm SW): 119.525 (989-835-5841)
WX AWOS-3 at MBS (19 nm S): PHONE 989-695-2488

Nearby radio navigation aids

VOR radial/distance  VOR name  Freq  Var
MBSr012/19.1SAGINAW VOR/DME112.9003W
MOPr072/34.2MOUNT PLEASANT VOR/DME110.6005W

Airport Services

Fuel available: FUEL AVBL EMERG ONLY.
Parking: tiedowns
Bottled oxygen: NONE
Bulk oxygen: NONE

Runway Information

Runway 9/27

Dimensions: 2565 x 100 ft. / 782 x 30 m
Surface: turf, in good condition
Runway edge lights: low intensity
Runway edge markings: 09/27 MKD WITH 3 FT YELLOW CONES.
RUNWAY 9  RUNWAY 27
Latitude: 43-50.813333N43-50.813333N
Longitude: 084-00.975000W084-00.391667W
Elevation: 615.0 ft.615.0 ft.
Traffic pattern: leftleft
Displaced threshold: no442 ft.
Obstructions: 80 ft. trees, 1405 ft. from runway, 17:1 slope to clear40 ft. tree, 90 ft. right of centerline
APCH RATIO AT DSPLCD THLD 11:1 OVER 40 FT TREE, 460 FT DST, 90 FT R; 32:1 OVER 15 FT ROAD 490 DST, 0 BOTH BASED ON STRAIGHT OUT.

Airport Ownership and Management from official FAA records

Ownership: Privately-owned
Owner: CARL A. GROSS INC
706 5TH ST, BOX 31
PINCONNING, MI 48650
Phone 989-879-5048
Manager: JAMES M. KLEIN
706 5TH ST BOX 31
PINCONNING, MI 48650
Phone 989-708-7583
ASST AMGR MICHAEL HARTMAN 989-239-9878.

Airport Operational Statistics

Aircraft based on the field: 21
Single engine airplanes: 20
Ultralights: 1
    
Aircraft operations: avg 21/month *
60% local general aviation
40% transient general aviation
* for 12-month period ending 31 December 2017

Additional Remarks

FOR SNOW REMOVAL COND CALL 989-239-9878.
BLDGS IN PRIM SFC EAST END, 70 FT N & 93 FT S OF CNTRLN; 15-45 FT TREES 95 FT S OF CNTRLN WEST END.
-6 FT DITCH 15 FT WEST OF RY 09.
ULTRA LIGHTS USE 500' TPA.

Instrument Procedures

There are no published instrument procedures at 52I.

Some nearby airports with instrument procedures:

KIKW - Jack Barstow Airport (15 nm SW)
3CM - James Clements Municipal Airport (19 nm S)
KMBS - MBS International Airport (19 nm S)
KGDW - Gladwin Zettel Memorial Airport (21 nm W)
Y31 - West Branch Community Airport (25 nm N)
 
Loc | Ops | Rwys | IFR | FBO | Links
Com | Nav | Svcs | Stats | Notes


 
Area around 52I (Gross Airport)
 
Road maps at: MapQuest Bing Google
 
Aerial photo
WARNING: Photo may not be current or correct
Aerial photo of 52I (Gross Airport)
Photo by: Tom Taylor, Essexville, MI

Do you have a better or more recent aerial photo of Gross Airport that you would like to share? If so, please send us your photo.

 
Sectional chart

 
Airport distance calculator
Flying to Gross Airport? Find the distance to fly.

From to 52I

Sunrise and sunset
Times for 17-Oct-2018
 Local
(UTC-4)
 Zulu
(UTC)
Morning civil twilight07:2511:25
Sunrise07:5411:54
Sunset18:4922:49
Evening civil twilight19:1823:18

Current date and time
Zulu (UTC)  17-Oct-2018 10:42:57
Local (UTC-4)  17-Oct-2018 06:42:57
 
METAR
KIKW 
15nm SW 
171015Z AUTO 27005KT 10SM OVC070 06/01 A2998 RMK AO2 T00560010
KMBS 
19nm S 
170953Z 26006KT 10SM SCT050 BKN065 04/02 A2999 RMK AO2 SLP157 T00440017
KY31 
25nm N 
171015Z AUTO 28005KT 10SM BKN044 OVC055 04/00 A2994 RMK AO2 T00400000
KHYX 
26nm S 
171015Z AUTO 27006KT 10SM BKN050 OVC070 06/01 A2998 RMK AO2
TAF
KMBS 
19nm S 
170527Z 1706/1806 27010KT P6SM SCT030 BKN045 FM170800 30010KT P6SM SCT025 BKN040 FM171400 30013G23KT P6SM SCT030 BKN045 FM180000 31009KT P6SM BKN045
NOTAMs
Click for the latest NOTAMs
NOTAMs are issued by the DoD/FAA and will open in a separate window not controlled by AirNav.

 

 
 

Would you like to see your business listed on this page?

 If your business provides an interesting product or service to pilots, flight crews, aircraft, or users of the Gross Airport, you should consider listing it here.  To start the listing process, click on the button below
 
Add a business
 

Other Pages about Gross Airport

Page from the Michigan Airport Directory (PDF)
 
Update a link
 
Copyright © AirNav, LLC. All rights reserved. Privacy Policy  Contact